Location: downtown San Diego
(32.7310°N, 117.1990°W)
Time: 18:19:52
(UTC-07:00)

H-2A R/B - Pass Details

Date: 19 May 2017
Orbit: 734 x 837 km, 98.4° (Epoch: 23 September)

Event Time Altitude Azimuth Distance (km) Brightness Sun altitude
Exits shadow 22:38:19 63° 322° (NW) 821 2.2 -29.1°
Drops below altitude 10° 22:42:31 10° 344° (NNW) 2,256 5.3 -29.6°
Sets 22:44:50 0° 346° (NNW) 3,192 6.2 -29.9°
